Simultaneous Nadir Overpasses (SNOs) Predictions

Prediction of SNOs between AQUA and GOES-15 Satellite Orbit:

Table of predicted SNOs for the next 14.0 days since TLE Epoch: 11/11/2016
Index Date Time (AQUA) AQUA Lat,Lon GOES-15 Lat,Lon Distance(km) Time Diff (sec)
1 11/11/2016 10:31:29 -0.16,-134.12 0.07,-135.15 117.60 80
2 11/11/2016 22:52:53 -0.92,-139.32 -0.05,-135.11 477.52 80
3 11/13/2016 10:19:17 -0.76,-131.15 0.08,-135.20 459.91 80
4 11/13/2016 22:40:41 -0.31,-136.35 -0.05,-135.16 135.31 80
5 11/15/2016 22:28:30 0.31,-133.39 -0.06,-135.21 206.11 80
6 11/16/2016 10:49:45 0.73,-138.56 0.04,-135.27 373.51 80
7 11/18/2016 10:37:33 0.11,-135.60 0.04,-135.31 32.83 80
8 11/20/2016 10:25:21 -0.53,-132.64 0.04,-135.34 307.52 80
9 11/20/2016 22:46:45 -0.59,-137.83 -0.02,-135.30 288.33 80
10 11/22/2016 22:34:33 0.06,-134.87 -0.02,-135.33 51.92 80
11 11/24/2016 22:22:21 0.71,-131.91 -0.03,-135.36 391.94 80




NCC Satellite Simultaneous Nadir Overpasses (SNOs) Prediction Service
